Baker, MT

6:01 PM MDT on June 23, 2017 (GMT -0600)
Baker Municipal

Weather History for KBHK - August, 2014

Change the Weather History Date:

Friday, August 15, 2014

  Actual Average Record
Temperature  
Mean Temperature 68 °F -  
Max Temperature 73 °F 86 °F 102 °F (2003)
Min Temperature 64 °F 66 °F 45 °F (2002)
Cooling Degree Days 2    
Growing Degree Days 18 (Base 50)    
Moisture  
Dew Point 65 °F    
Average Humidity 92    
Maximum Humidity 100    
Minimum Humidity 78    
Precipitation  
Precipitation 0.12 in - - ()
Sea Level Pressure  
Sea Level Pressure 29.93 in    
Wind  
Wind Speed 11 mph (NW)    
Max Wind Speed 20 mph    
Max Gust Speed 24 mph    
Visibility 9 miles    
Events Rain , Thunderstorm    
Averages and records for this station are not official NWS values.
T = Trace of Precipitation, MM = Missing Value Source: NWS Daily Summary

Daily Weather History Graph

Daily Weather History Graph

Search for Another Location

Airport or City:

Trip Planner

Search our weather history database for the weather conditions in past years. The results will help you decide how hot, cold, wet, or windy it might be!

Date:

Astronomy

Aug. 15, 2014 Rise Set
Actual Time 5:55 AM MDT 8:06 PM MDT
Civil Twilight 5:22 AM MDT 8:39 PM MDT
Nautical Twilight 4:42 AM MDT 9:19 PM MDT
Astronomical Twilight 3:56 AM MDT 10:04 PM MDT
Moon 10:46 PM MDT (8/15) 12:03 PM MDT (8/15)
Length of Visible Light 15h 16m
Length of Day
14h 10m
Waning Gibbous, 68% of the Moon is Illuminated
Aug 15
Waning Gibbous
Aug 17
Last Quarter
Aug 25
New
Sep 2
First Quarter
Sep 8
Full

Hourly Weather History & Observations

Time (MDT) Temp. Dew Point Humidity Pressure Visibility Wind Dir Wind Speed Gust Speed Precip Events Conditions
12:15 AM 64.0 °F - N/A% 29.95 in 10.0 mi West 11.5 mph - 0.02 in Rain , Thunderstorm Light Rain
12:59 AM 64.0 °F - N/A% 29.94 in 10.0 mi West 15.0 mph - 0.01 in Rain Light Rain
1:07 AM 64.0 °F - N/A% 29.94 in 10.0 mi WNW 11.5 mph - 0.01 in Rain , Thunderstorm Light Rain
1:51 AM 64.0 °F - N/A% 29.85 in 3.0 mi WNW 13.8 mph - 0.06 in Rain , Thunderstorm Heavy Rain
2:01 AM 64.0 °F - N/A% 29.91 in 9.0 mi WNW 13.8 mph - 0.00 in Rain Light Rain
2:19 AM 64.0 °F - N/A% 29.91 in 10.0 mi West 12.7 mph - 0.01 in Rain Light Rain
2:51 AM 64.0 °F - N/A% 29.86 in 10.0 mi WNW 8.1 mph - 0.01 in   Mostly Cloudy
2:59 AM 64.0 °F - N/A% 29.93 in 10.0 mi WNW 8.1 mph - N/A   Overcast
3:23 AM 64.9 °F - N/A% 29.92 in 10.0 mi WNW 9.2 mph - N/A   Mostly Cloudy
3:29 AM 64.9 °F - N/A% 29.92 in 10.0 mi West 11.5 mph - N/A   Mostly Cloudy
3:51 AM 64.9 °F - N/A% 29.85 in 10.0 mi West 9.2 mph - N/A   Overcast
4:51 AM 64.9 °F - N/A% 29.84 in 10.0 mi West 9.2 mph - 0.00 in   Overcast
5:23 AM 64.9 °F 64.9 °F 100% 29.92 in 10.0 mi WNW 9.2 mph - 0.00 in   Overcast
5:51 AM 64.9 °F 64.9 °F 100% 29.85 in 10.0 mi WNW 9.2 mph - 0.00 in   Overcast
6:39 AM 64.0 °F 64.0 °F 100% 29.92 in 9.0 mi WNW 10.4 mph - 0.01 in   Overcast
6:51 AM 64.0 °F 64.0 °F 100% 29.86 in 6.0 mi WNW 10.4 mph - 0.01 in   Overcast
7:08 AM 64.0 °F 64.0 °F 100% 29.93 in 10.0 mi WNW 8.1 mph - N/A   Overcast
7:49 AM 64.4 °F 64.4 °F 100% 29.94 in 4.0 mi WNW 8.1 mph - 0.03 in Rain Rain
8:08 AM 64.0 °F 64.0 °F 100% 29.94 in 10.0 mi NW 8.1 mph - 0.01 in Rain Light Rain
8:13 AM 64.9 °F 64.0 °F 97% 29.95 in 10.0 mi NW 10.4 mph - 0.01 in   Overcast
8:18 AM 64.9 °F 64.0 °F 97% 29.95 in 10.0 mi WNW 9.2 mph - 0.01 in   Mostly Cloudy
9:51 AM 64.9 °F - N/A% 29.90 in 10.0 mi West 8.1 mph - N/A   Overcast
10:24 AM 66.0 °F 64.0 °F 93% 29.96 in 10.0 mi WNW 8.1 mph - N/A   Overcast
10:30 AM 66.0 °F 64.0 °F 93% 29.96 in 10.0 mi WNW 4.6 mph - N/A   Overcast
10:51 AM 66.9 °F 64.9 °F 93% 29.92 in 10.0 mi West 9.2 mph - N/A   Overcast
11:39 AM 66.0 °F 64.9 °F 96% 29.96 in 9.0 mi NW 9.2 mph - N/A   Overcast
11:58 AM 66.0 °F 64.9 °F 96% 29.96 in 6.0 mi NW 11.5 mph - 0.00 in   Overcast
12:23 PM 66.0 °F 64.9 °F 96% 29.96 in 3.0 mi WNW 11.5 mph - 0.00 in   Overcast
12:34 PM 66.9 °F 66.0 °F 97% 29.96 in 2.5 mi NW 8.1 mph - 0.00 in   Overcast
12:37 PM 66.9 °F 66.0 °F 97% 29.96 in 3.0 mi WNW 10.4 mph - 0.00 in   Overcast
12:42 PM 66.9 °F 66.0 °F 97% 29.95 in 4.0 mi WNW 10.4 mph - 0.00 in   Overcast
12:51 PM 68.0 °F 66.0 °F 93% 29.91 in 9.0 mi WNW 10.4 mph - 0.00 in   Overcast
1:09 PM 69.1 °F 66.0 °F 90% 29.95 in 10.0 mi NW 12.7 mph - N/A   Overcast
1:39 PM 70.0 °F 66.0 °F 87% 29.95 in 10.0 mi NW 10.4 mph - N/A   Overcast
1:51 PM 71.1 °F 66.0 °F 84% 29.90 in 10.0 mi NNW 8.1 mph - N/A   Overcast
1:57 PM 71.1 °F 64.9 °F 81% 29.95 in 10.0 mi North 6.9 mph - N/A   Overcast
3:20 PM 68.0 °F 66.0 °F 93% 29.96 in 10.0 mi NNW 12.7 mph - 0.00 in   Overcast
3:33 PM 68.0 °F 66.0 °F 93% 29.96 in 4.0 mi NW 16.1 mph - 0.02 in Rain Light Rain
3:51 PM 68.0 °F 66.9 °F 96% 29.91 in 10.0 mi NNW 12.7 mph - 0.02 in   Overcast
3:56 PM 66.9 °F 64.9 °F 93% 29.96 in 10.0 mi NNW 19.6 mph 24.2 mph N/A   Overcast
4:35 PM 64.9 °F 63.0 °F 93% 29.96 in 4.0 mi NNW 12.7 mph - 0.01 in Rain Light Rain
4:51 PM 66.0 °F 64.0 °F 93% 29.90 in 9.0 mi NNW 16.1 mph 21.9 mph 0.02 in   Overcast
5:35 PM 69.1 °F 64.9 °F 87% 29.95 in 10.0 mi North 12.7 mph - N/A   Mostly Cloudy
5:51 PM 69.1 °F 64.9 °F 87% 29.90 in 10.0 mi North 11.5 mph - N/A   Mostly Cloudy
6:51 PM 71.1 °F 64.0 °F 78% 29.88 in 10.0 mi NNW 9.2 mph - N/A   Mostly Cloudy
7:51 PM 70.0 °F 64.0 °F 81% 29.89 in 10.0 mi NW 10.4 mph - N/A   Overcast
8:14 PM 69.1 °F 64.0 °F 84% 29.94 in 10.0 mi WNW 6.9 mph - N/A   Overcast
9:00 PM 68.0 °F 64.0 °F 87% 29.96 in 10.0 mi NW 6.9 mph - N/A   Mostly Cloudy
10:32 PM 66.9 °F 62.1 °F 84% 29.98 in 10.0 mi NNE 11.5 mph 17.3 mph N/A   Overcast
10:38 PM 66.0 °F 61.0 °F 84% 29.99 in 10.0 mi NE 13.8 mph - N/A   Overcast
11:51 PM 64.0 °F 59.0 °F 84% 29.96 in 10.0 mi NNE 5.8 mph - N/A   Mostly Cloudy